Other Surface Observations
Issued by NWS

Home | Current Version | Previous Version | Text Only | Print | Product List | Glossary On
Versions: 1 2 3 4 5 6 7 8 9 10 11 12 13 14 15 16 17 18 19 20 21 22 23 24 25 26 27 28 29 30 31 32 33 34 35 36 37 38 39 40 41 42 43 44 45 46 47 48 49 50
010
SXUS52 KTAE 230806
OSOTAE
OSOTAE
North Florida/South Alabama/Southwest Georgia Weather Roundup
National Weather Service Tallahassee Florida
300 AM EST THU NOV 23 2017

Note: "fair" indicates few or no clouds below 12,000 feet with no
significant weather and/or obstructions to visibility.

!FLZ017-115-028-034-025-230900
...North Florida...

CITY           SKY/WX    TMP DP  RH WIND       PRES   REMARKS
TALLAHASSEE    LGT RAIN  58  57  97 CALM      29.97F
APALACHICOLA   LGT RAIN  56  56 100 NE9       29.95F
PERRY          RAIN      62  60  92 CALM      29.99S
CROSS CITY     HVY RAIN  61  61 100 N9        29.99F FOG
JACKSONVILLE   CLOUDY    63  62  97 NE8       29.95F
$$

!FLZ112-006-005-002-011-230900
...Florida Panhandle...

CITY           SKY/WX    TMP DP  RH WIND       PRES   REMARKS
MARIANNA       CLOUDY    58  41  53 N5        30.00S
BONIFAY        NOT AVBL
PANAMA CITY NW FAIR      55  45  68 NW10      29.98F
TYNDALL AFB    DRIZZLE   58  48  71 N9        29.97F
TYND DRONE APT PTSUNNY   55  52  88 NE13      29.97F
DE FUNIAK SPR  PTSUNNY   51  38  62 N9        30.03S
EGLIN AFB      PTCLDY    52  39  61 N14       30.00F
DESTIN         CLOUDY    57  41  55 N14       30.01S
HURLBURT       NOT AVBL
CRESTVIEW      MOCLDY    49  39  68 N7        30.05R
PENSACOLA      CLOUDY    51  37  58 N12       30.03F
$$

!ALZ063-066-230900
...South Alabama...

CITY           SKY/WX    TMP DP  RH WIND       PRES   REMARKS
DOTHAN         PTCLDY    51  38  60 N7        30.05F
OZARK CAIRNS   CLOUDY    51  37  57 N9        30.02S
FT RUCKER HELI CLOUDY    51  39  63 N7        30.03S
RUCKER HELI 3    N/A     50  37  60 N12       30.02F
RUCKER HELI 2  CLOUDY    52  36  54 N8        30.01F
FLORALA APT    MOCLDY    49  40  71 N6        30.06S
ANDALUSIA      MOCLDY    49  38  65 N6        30.05S
TROY           CLEAR     43  36  76 N6        30.07S WCI  39
EUFALA         CLOUDY    51  36  56 VRB3      30.04F
MOBILE         CLEAR     44  31  60 N12       30.09S WCI  38
$$

!GAZ120>161-230900
...Southwest and South Central Georgia...

CITY           SKY/WX    TMP DP  RH WIND       PRES   REMARKS
THOMASVILLE    RAIN      57  57 100 E3        29.99F
BAINBRIDGE     CLOUDY    57  50  77 N3        30.00F
MOODY AFB      LGT RAIN  60  60 100 NE6       29.98F
VALDOSTA       LGT RAIN  60  59  96 NE3       29.98F
MOULTRIE       DRIZZLE   55  55 100 CALM      30.00S
BLAKELY        CLOUDY    55  43  62 N5        30.02F
ALBANY         CLOUDY    56  41  57 N8        29.99F
TIFTON         DRIZZLE   56  56 100 NE3       30.00F
FITZGERALD     DRIZZLE   56  55  95 CALM      30.04S
CORDELE        PTSUNNY   58  44  58 N5        30.04S
AMERICUS       CLOUDY    52  32  46 NE7       30.05S
HOMERVILLE     DRIZZLE   59  59 100 CALM      30.00F
$$

!GMZ750-755-770-775-230900
...Coastal and Buoy Obs...

STATION/POSITION TIME  TEMP    WIND        PRES    VSBY  WAVE
                       AIR SEA DIR/SP/G                  HT/PER
                 (UTC) (F)     (DEG/KT/KT) (MB)    (MI)  (FT/S)
KEATON BEACH     0800   60      20/  7/ 10 1014.0F
CEDAR KEY        0700   63      40/ 10/ 11 1013.7F
C TOWER          0800   65      60/ 20/ 22 1013.9F
APALACHICOLA BUO 0750   68 75   30/ 21/ 23   N/A           4/ 5
PANAMA CITY BUOY 0650   69 76   50/ 17/ 21 1013.0          4/ 5
MOBILE BUOY      0750   64 77   20/ 19/ 25 1016.0F         7/ 7
ORANGE BCH AL BU NOT AVBL
$$




USA.gov is the U.S. government's official web portal to all federal, state and local government web resources and services.